Charlotte, NC

3:39 PM EST on February 27, 2017 (GMT -0500)
Charlotte-Douglas International

Weather History for KCLT - June, 2013

Change the Weather History Date:

Wednesday, June 26, 2013

  Actual Average Record
Temperature  
Mean Temperature 80 °F 77 °F  
Max Temperature 90 °F 88 °F 102 °F (1952)
Min Temperature 70 °F 67 °F 55 °F (1979)
Degree Days  
Heating Degree Days 0 0  
Month to date heating degree days 0 0  
Since 1 June heating degree days 0 0  
Since 1 July heating degree days 3221 3385  
Cooling Degree Days 15 12  
Month to date cooling degree days 291 259  
Year to date cooling degree days 460 422  
Since 1 June cooling degree days 291 259  
Growing Degree Days 30 (Base 50)    
Moisture  
Dew Point 70 °F    
Average Humidity 73    
Maximum Humidity 93    
Minimum Humidity 52    
Precipitation  
Precipitation T in 0.11 in 1.98 in (1930)
Month to date precipitation 6.29 3.30  
Year to date precipitation 25.04 20.26  
Snow  
Snow 0.00 in 0.00 in 0.00 in ()
Month to date snowfall 0.0 0.0  
Since 1 June snowfall 0.0 0.0  
Since 1 July snowfall 2.7 4.3  
Snow Depth 0.00 in    
Sea Level Pressure  
Sea Level Pressure 29.99 in    
Wind  
Wind Speed 5 mph (SW)    
Max Wind Speed 14 mph    
Max Gust Speed 16 mph    
Visibility 10 miles    
Events Thunderstorm    
T = Trace of Precipitation, MM = Missing Value Source: NWS Daily Summary

Daily Weather History Graph

Daily Weather History Graph

Search for Another Location

Airport or City:

Trip Planner

Search our weather history database for the weather conditions in past years. The results will help you decide how hot, cold, wet, or windy it might be!

Date:

Astronomy

Jun. 26, 2013 Rise Set
Actual Time 6:11 AM EDT 8:42 PM EDT
Civil Twilight 5:41 AM EDT 9:12 PM EDT
Nautical Twilight 5:04 AM EDT 9:48 PM EDT
Astronomical Twilight 4:23 AM EDT 10:29 PM EDT
Moon 11:14 PM EDT (6/26) 9:52 AM EDT (6/26)
Length of Visible Light 15h 30m
Length of Day
14h 31m
Waning Gibbous, 85% of the Moon is Illuminated
Jun 26
Waning Gibbous
Jun 30
Last Quarter
Jul 8
New
Jul 15
First Quarter
Jul 22
Full

Hourly Weather History & Observations

Time (EDT) Temp. Heat Index Dew Point Humidity Pressure Visibility Wind Dir Wind Speed Gust Speed Precip Events Conditions
12:52 AM 73.0 °F - 66.9 °F 81% 30.03 in 10.0 mi SSW 3.5 mph - N/A   Overcast
1:52 AM 73.0 °F - 66.9 °F 81% 30.01 in 10.0 mi SW 3.5 mph - N/A   Mostly Cloudy
2:52 AM 71.1 °F - 68.0 °F 90% 30.00 in 10.0 mi South 3.5 mph - N/A   Scattered Clouds
3:52 AM 72.0 °F - 69.1 °F 91% 29.99 in 10.0 mi SW 5.8 mph - N/A   Clear
4:52 AM 71.1 °F - 69.1 °F 93% 29.99 in 10.0 mi SW 3.5 mph - N/A   Clear
5:52 AM 71.1 °F - 69.1 °F 93% 30.01 in 10.0 mi South 5.8 mph - N/A   Scattered Clouds
6:17 AM 69.8 °F - 69.8 °F 100% 30.05 in 10.0 mi SW 3.5 mph - N/A   Mostly Cloudy
6:28 AM 71.6 °F - 69.8 °F 94% 30.06 in 10.0 mi Variable 3.5 mph - N/A   Overcast
6:52 AM 71.1 °F - 70.0 °F 96% 30.04 in 10.0 mi SW 6.9 mph - N/A   Overcast
7:18 AM 71.6 °F - 69.8 °F 94% 30.07 in 9.0 mi WSW 5.8 mph - N/A   Overcast
7:52 AM 71.1 °F - 70.0 °F 96% 30.05 in 8.0 mi WSW 4.6 mph - N/A   Overcast
8:52 AM 73.9 °F - 71.1 °F 91% 30.03 in 10.0 mi SSW 5.8 mph - N/A   Overcast
9:26 AM 75.2 °F - 69.8 °F 83% 30.06 in 10.0 mi Variable 4.6 mph - N/A   Overcast
9:52 AM 77.0 °F - 71.1 °F 82% 30.03 in 10.0 mi West 5.8 mph - N/A   Overcast
10:03 AM 75.2 °F - 71.6 °F 89% 30.05 in 10.0 mi WNW 3.5 mph - N/A   Overcast
10:52 AM 80.1 °F 83.8 °F 72.0 °F 76% 30.01 in 10.0 mi Calm Calm - N/A   Scattered Clouds
11:52 AM 82.9 °F 88.0 °F 72.0 °F 69% 30.01 in 10.0 mi West 3.5 mph - N/A   Scattered Clouds
12:52 PM 86.0 °F 90.7 °F 70.0 °F 59% 30.00 in 10.0 mi Variable 5.8 mph - N/A   Scattered Clouds
1:52 PM 87.1 °F 92.8 °F 71.1 °F 59% 29.98 in 10.0 mi WSW 4.6 mph - N/A   Scattered Clouds
2:52 PM 88.0 °F 93.8 °F 71.1 °F 57% 29.95 in 10.0 mi SW 6.9 mph - N/A   Scattered Clouds
3:52 PM 89.1 °F 95.0 °F 71.1 °F 55% 29.93 in 10.0 mi SW 9.2 mph - N/A   Scattered Clouds
4:52 PM 89.1 °F 94.1 °F 70.0 °F 53% 29.93 in 10.0 mi SW 8.1 mph - N/A   Scattered Clouds
5:32 PM 86.0 °F 90.4 °F 69.8 °F 58% 29.95 in 10.0 mi SW 8.1 mph - N/A Thunderstorm Thunderstorm
5:52 PM 84.0 °F 88.4 °F 70.0 °F 63% 29.93 in 10.0 mi NW 5.8 mph 16.1 mph N/A Thunderstorm Thunderstorm
6:52 PM 79.0 °F - 69.1 °F 72% 29.92 in 10.0 mi Calm Calm - 0.00 in Thunderstorm Thunderstorm
7:17 PM 80.6 °F 83.2 °F 68.0 °F 65% 29.96 in 10.0 mi East 5.8 mph - N/A   Mostly Cloudy
7:52 PM 78.1 °F - 70.0 °F 76% 29.93 in 10.0 mi Calm Calm - N/A   Mostly Cloudy
8:52 PM 77.0 °F - 70.0 °F 79% 29.94 in 10.0 mi East 3.5 mph - N/A   Overcast
9:52 PM 75.9 °F - 70.0 °F 82% 29.94 in 10.0 mi ESE 9.2 mph - N/A   Mostly Cloudy
10:52 PM 77.0 °F - 69.1 °F 76% 29.94 in 10.0 mi SSE 10.4 mph - N/A   Mostly Cloudy
11:52 PM 73.9 °F - 69.1 °F 85% 29.95 in 10.0 mi SSE 5.8 mph - N/A   Mostly Cloudy